TimeCDT,TemperatureF,Dew PointF,Humidity,Sea Level PressureIn,VisibilityMPH,Wind Direction,Wind SpeedMPH,Gust SpeedMPH,PrecipitationIn,Events,Conditions,WindDirDegrees,DateUTC
12:53 AM,81.0,75.0,82,30.01,10.0,SSE,4.6,-,N/A,,Clear,160,2013-08-05 05:53:00
1:53 AM,79.0,75.0,88,30.01,10.0,Calm,Calm,-,N/A,,Clear,0,2013-08-05 06:53:00
2:53 AM,78.1,75.0,90,30.00,10.0,SE,3.5,-,N/A,,Clear,130,2013-08-05 07:53:00
3:53 AM,78.1,75.0,90,30.01,10.0,SSW,3.5,-,N/A,,Clear,210,2013-08-05 08:53:00
4:53 AM,77.0,73.9,90,30.01,10.0,Calm,Calm,-,N/A,,Clear,0,2013-08-05 09:53:00
5:53 AM,75.9,73.9,94,30.01,10.0,Calm,Calm,-,N/A,,Clear,0,2013-08-05 10:53:00
6:53 AM,75.9,73.9,94,30.03,10.0,Calm,Calm,-,N/A,,Clear,0,2013-08-05 11:53:00
7:53 AM,79.0,75.0,88,30.04,10.0,SW,5.8,-,N/A,,Partly Cloudy,220,2013-08-05 12:53:00
8:53 AM,81.0,75.0,82,30.05,10.0,SW,8.1,-,N/A,,Partly Cloudy,220,2013-08-05 13:53:00
9:53 AM,84.9,73.9,69,30.04,10.0,WSW,9.2,-,N/A,,Clear,240,2013-08-05 14:53:00
10:53 AM,86.0,73.9,67,30.04,10.0,WSW,9.2,-,N/A,,Clear,240,2013-08-05 15:53:00
11:53 AM,89.1,73.0,59,30.03,10.0,SW,8.1,-,N/A,,Partly Cloudy,220,2013-08-05 16:53:00
12:53 PM,91.0,71.1,52,30.01,10.0,Variable,6.9,-,N/A,,Clear,0,2013-08-05 17:53:00
1:53 PM,93.0,71.1,49,29.99,10.0,South,6.9,-,N/A,,Clear,170,2013-08-05 18:53:00
2:53 PM,95.0,71.1,46,29.97,10.0,South,9.2,-,N/A,,Clear,180,2013-08-05 19:53:00
3:53 PM,96.1,69.1,41,29.94,10.0,South,11.5,-,N/A,,Clear,170,2013-08-05 20:53:00
4:53 PM,96.1,68.0,40,29.92,10.0,Variable,6.9,-,N/A,,Clear,0,2013-08-05 21:53:00
5:53 PM,96.1,66.0,37,29.90,10.0,SW,5.8,-,N/A,,Clear,220,2013-08-05 22:53:00
6:53 PM,95.0,66.9,40,29.89,10.0,SSE,4.6,-,N/A,,Clear,160,2013-08-05 23:53:00
7:53 PM,91.9,69.1,47,29.89,10.0,South,4.6,-,N/A,,Clear,170,2013-08-06 00:53:00
8:53 PM,84.9,73.0,67,29.90,10.0,SSE,5.8,-,N/A,,Clear,150,2013-08-06 01:53:00
9:53 PM,86.0,73.9,67,29.92,10.0,South,11.5,-,N/A,,Clear,170,2013-08-06 02:53:00
10:53 PM,84.0,75.0,74,29.95,10.0,South,11.5,-,N/A,,Clear,180,2013-08-06 03:53:00
11:53 PM,82.9,75.0,77,29.94,10.0,South,5.8,-,N/A,,Clear,170,2013-08-06 04:53:00